| time (UTC) | temp C | wind direction | speed KPH | gust KPH | rain 1hr cm | rain 24hr cm | rain mn cm | humidity % | barometer mb |
| 20260906221504 | 20 | 259 | 0.0 | 0.0 | 0.03 | 0.05 | 0.05 | 61 | 1013.1 |
| 20260906220005 | 19 | 259 | 0.0 | 0.0 | 0.00 | 0.05 | 0.03 | 66 | 1013.2 |
| 20260906214500 | 19 | 259 | 0.0 | 0.0 | 0.00 | 0.05 | 0.03 | 65 | 1013.5 |
| 20260906212959 | 19 | 259 | 0.0 | 0.0 | 0.00 | 0.05 | 0.03 | 65 | 1013.7 |
| 20260906211458 | 19 | 260 | 0.0 | 0.0 | 0.00 | 0.05 | 0.03 | 63 | 1013.8 |
| 20260906204457 | 17 | 260 | 0.0 | 0.0 | 0.00 | 0.05 | 0.03 | 63 | 1014.4 |
| 20260906202959 | 17 | 261 | 0.0 | 0.0 | 0.00 | 0.05 | 0.03 | 71 | 1014.6 |
| 20260906201503 | 16 | 244 | 0.0 | 0.0 | 0.00 | 0.05 | 0.03 | 74 | 1014.9 |
| 20260906194459 | 15 | 244 | 0.0 | 0.0 | 0.00 | 0.08 | 0.03 | 81 | 1015.6 |
| 20260906181508 | 12 | 145 | 0.0 | 0.0 | 0.00 | 0.08 | 0.03 | 97 | 1017.3 |
| 20260906180005 | 11 | 145 | 0.0 | 0.0 | 0.00 | 0.08 | 0.03 | 96 | 1017.4 |
| 20260906174459 | 10 | 145 | 0.0 | 0.0 | 0.00 | 0.08 | 0.03 | 96 | 1017.8 |
| 20260906172959 | 10 | 145 | 0.0 | 0.0 | 0.00 | 0.08 | 0.03 | 97 | 1018.0 |
| 20260906171458 | 10 | 145 | 0.0 | 0.0 | 0.00 | 0.08 | 0.03 | 96 | 1018.3 |
| 20260906170002 | 9 | 145 | 0.0 | 0.0 | 0.00 | 0.08 | 0.03 | 96 | 1018.6 |
| 20260906164459 | 9 | 145 | 0.0 | 0.0 | 0.00 | 0.08 | 0.03 | 96 | 1018.9 |
| 20260906161458 | 8 | 145 | 0.0 | 0.0 | 0.00 | 0.08 | 0.03 | 96 | 1019.5 |
| 20260906160002 | 7 | 145 | 0.0 | 0.0 | 0.00 | 0.08 | 0.03 | 96 | 1019.5 |
| 20260906154459 | 7 | 145 | 0.0 | 0.0 | 0.00 | 0.08 | 0.03 | 96 | 1019.6 |
| 20260906152959 | 7 | 145 | 0.0 | 0.0 | 0.00 | 0.08 | 0.03 | 96 | 1019.8 |
| 20260906151458 | 7 | 144 | 0.0 | 0.0 | 0.00 | 0.08 | 0.03 | 95 | 1019.9 |
| 20260906150002 | 7 | 144 | 0.0 | 0.0 | 0.00 | 0.08 | 0.03 | 95 | 1020.0 |
| 20260906142958 | 7 | 144 | 0.0 | 0.0 | 0.00 | 0.08 | 0.03 | 95 | 1019.9 |
| 20260906141458 | 7 | 144 | 0.0 | 0.0 | 0.00 | 0.08 | 0.03 | 95 | 1019.7 |
| 20260906140001 | 7 | 144 | 0.0 | 0.0 | 0.00 | 0.08 | 0.03 | 95 | 1019.6 |
| 20260906134459 | 7 | 144 | 0.0 | 0.0 | 0.00 | 0.10 | 0.03 | 95 | 1019.6 |
| 20260906132958 | 7 | 143 | 0.0 | 0.0 | 0.00 | 0.10 | 0.03 | 95 | 1019.4 |
| 20260906124459 | 7 | 143 | 0.0 | 0.0 | 0.00 | 0.10 | 0.03 | 95 | 1019.6 |
| 20260906122958 | 7 | 143 | 0.0 | 0.0 | 0.00 | 0.10 | 0.03 | 95 | 1019.5 |
| 20260906121458 | 7 | 143 | 0.0 | 0.0 | 0.00 | 0.10 | 0.03 | 95 | 1019.5 |
| 20260906120005 | 7 | 53 | 0.0 | 0.0 | 0.00 | 0.10 | 0.03 | 95 | 1019.4 |
| 20260906114459 | 7 | 53 | 0.0 | 0.0 | 0.00 | 0.10 | 0.03 | 95 | 1019.2 |
| 20260906110001 | 7 | 53 | 0.0 | 0.0 | 0.03 | 0.10 | 0.03 | 94 | 1019.2 |
| 20260906104459 | 7 | 53 | 0.0 | 0.0 | 0.03 | 0.13 | 0.03 | 95 | 1019.3 |
| 20260906102958 | 8 | 53 | 0.0 | 0.0 | 0.03 | 0.13 | 0.03 | 95 | 1019.4 |
| 20260906101458 | 8 | 53 | 0.0 | 0.0 | 0.03 | 0.13 | 0.03 | 94 | 1019.4 |
| 20260906094458 | 8 | 53 | 0.0 | 0.0 | 0.00 | 0.10 | 0.00 | 95 | 1019.5 |
| 20260906092959 | 8 | 53 | 0.0 | 0.0 | 0.00 | 0.10 | 0.00 | 95 | 1019.5 |
| 20260906091458 | 8 | 53 | 0.0 | 0.0 | 0.00 | 0.10 | 0.00 | 94 | 1019.6 |
| 20260906090000 | 8 | 53 | 0.0 | 0.0 | 0.00 | 0.10 | 0.00 | 94 | 1019.5 |
| 20260906084501 | 8 | 53 | 0.0 | 0.0 | 0.00 | 0.10 | 0.00 | 94 | 1019.4 |
| 20260906082959 | 8 | 53 | 0.0 | 0.0 | 0.00 | 0.10 | 0.00 | 94 | 1019.2 |
| 20260906081458 | 8 | 53 | 0.0 | 0.0 | 0.00 | 0.10 | 0.00 | 94 | 1019.3 |
| 20260906080001 | 8 | 53 | 0.0 | 0.0 | 0.00 | 0.10 | 0.00 | 94 | 1019.4 |
| 20260906074501 | 8 | 53 | 0.0 | 0.0 | 0.00 | 0.10 | 0.00 | 94 | 1019.2 |
| 20260906073001 | 9 | 53 | 0.0 | 0.0 | 0.00 | 0.10 | 0.00 | 94 | 1019.1 |
| 20260906071459 | 9 | 53 | 0.0 | 0.0 | 0.00 | 0.10 | 0.00 | 94 | 1019.1 |
| 20260906070003 | 9 | 53 | 0.0 | 0.0 | 0.00 | 0.10 | 0.00 | 94 | 1019.1 |
| 20260906064500 | 9 | 53 | 0.0 | 0.0 | 0.00 | 0.10 | 0.10 | 94 | 1019.2 |
| 20260906063001 | 9 | 53 | 0.0 | 0.0 | 0.00 | 0.10 | 0.10 | 94 | 1019.1 |
| 20260906060001 | 10 | 53 | 0.0 | 0.0 | 0.00 | 0.10 | 0.10 | 94 | 1018.8 |
| 20260906054500 | 10 | 53 | 0.0 | 0.0 | 0.00 | 0.10 | 0.10 | 93 | 1018.9 |
| 20260906050001 | 10 | 53 | 0.0 | 0.0 | 0.03 | 0.10 | 0.10 | 93 | 1018.6 |
| 20260906044500 | 10 | 52 | 0.0 | 0.0 | 0.03 | 0.13 | 0.10 | 93 | 1018.6 |
| 20260906040003 | 11 | 59 | 0.0 | 0.0 | 0.00 | 0.10 | 0.08 | 91 | 1018.1 |
| 20260906032959 | 12 | 53 | 0.0 | 0.0 | 0.00 | 0.13 | 0.08 | 90 | 1017.8 |
| 20260906031458 | 13 | 53 | 0.0 | 0.0 | 0.00 | 0.13 | 0.08 | 90 | 1017.6 |
| 20260906030002 | 13 | 55 | 0.0 | 0.0 | 0.00 | 0.13 | 0.08 | 89 | 1017.7 |
| 20260906024502 | 13 | 51 | 0.0 | 0.0 | 0.00 | 0.13 | 0.08 | 87 | 1017.7 |
| 20260906023000 | 15 | 60 | 0.0 | 0.0 | 0.00 | 0.13 | 0.08 | 81 | 1017.6 |
| 20260906021459 | 17 | 300 | 0.0 | 0.0 | 0.00 | 0.13 | 0.08 | 72 | 1017.1 |
| 20260906014501 | 19 | 232 | 0.0 | 0.0 | 0.00 | 0.13 | 0.08 | 63 | 1016.5 |
| 20260906012959 | 20 | 232 | 0.0 | 0.0 | 0.00 | 0.13 | 0.08 | 60 | 1016.4 |
| 20260906011500 | 20 | 232 | 0.0 | 0.0 | 0.00 | 0.13 | 0.08 | 61 | 1016.1 |
| 20260906010003 | 20 | 232 | 0.0 | 0.0 | 0.00 | 0.13 | 0.08 | 66 | 1016.0 |
| 20260906004458 | 20 | 232 | 0.0 | 0.0 | 0.00 | 0.15 | 0.08 | 66 | 1016.0 |
| 20260906002958 | 20 | 232 | 0.0 | 0.0 | 0.00 | 0.15 | 0.08 | 63 | 1015.9 |
| 20260906001459 | 20 | 232 | 0.0 | 0.0 | 0.00 | 0.15 | 0.08 | 63 | 1015.9 |
| 20260906000002 | 20 | 225 | 0.0 | 0.0 | 0.00 | 0.15 | 0.08 | 63 | 1016.0 |
| 20260905234458 | 18 | 225 | 0.0 | 0.0 | 0.00 | 0.15 | 0.08 | 67 | 1016.2 |
| 20260905231459 | 18 | 182 | 0.0 | 0.0 | 0.00 | 0.15 | 0.08 | 61 | 1016.0 |
| 20260905230005 | 18 | 182 | 0.0 | 0.0 | 0.00 | 0.15 | 0.08 | 65 | 1016.3 |
| 20260905224500 | 18 | 182 | 0.0 | 0.0 | 0.00 | 0.15 | 0.08 | 65 | 1016.4 |
| 20260905223000 | 18 | 260 | 0.0 | 0.0 | 0.03 | 0.15 | 0.08 | 64 | 1016.5 |